ONEWEB-0012 (44057 NORAD) Tracking and Keplerian Element Data

This shows tracking and keplerian element data for the satellite.

Feedback or suggestion? Click here.




ElementValue
Catalog44057
NameONEWEB-0012
Epoch Orbit7989
Epoch Day298.25001157
Epoch Year2020
RAAN308.6407
Inclination87.9127
Eccentricity0.0001787
Argument of Perigee94.4101
Mean Anonmoly237.5635
Mean Motion13.21822589
Decay Rate-0.00023035
L11 44057U 19010A 20298.25001157 -.00023035 00000-0 -55952-1 0 9995
L22 44057 87.9127 308.6407 0001787 94.4101 237.5635 13.21822589 79891

Live tracking and technical data element details for ONEWEB-0012 (NORAD 44057). ONEWEB-0012 can be tracked NOW for your location showing map with azimuth and elevation plus other details from your city location.

Track the satellite on the map from your city or location and see movement details for azimuth, elevation, latitude, longitude, range, height, and movement on the map or in text.







IsCatalogInMostPopularTable: catalog: 44057, numindb: 369
Update: records affected: 1



GetName: 44057 ONEWEB-0012

Hit Count: updated at: Sat, 24 Oct 2020 23:52:17 GMT